Location: Barrio Las Umbrías
(40.4173°N, 4.8685°W)
Time: 14:07:59
(UTC+00:00)

ERS-1 Rocket - Pass Details

Date: 17 August 2022
Orbit: 753 x 756 km, 98.4° (Epoch: 28 September)

Event Time Altitude Azimuth Distance (km) Brightness Sun altitude
Exits shadow 22:14:18 63° 279° (W) 841 3.2 -28.6°
Drops below altitude 10° 22:19:00 10° 341° (NNW) 2,285 6.3 -29.1°
Sets 22:21:20 0° 344° (NNW) 3,215 7.3 -29.4°
